This demonstration page uses our WeatherBlox Daily Observations layout. Learn more.

Left ArrowRight Arrow

Hourly Observations for July 27, 2016

Temp ( °F °C ) Dew Point ( °F °C ) Humidity (%) Winds ( mph kmh ) Pressure ( in mb ) Visibility ( mi km ) Precip ( " mm )
12:58 am 00:58 Clear 67 19.5 67 19.5 100 100 E 3 6 29.99 1016 10 16 0.00 0.00
1:58 am 01:58 Clear 65 18.6 65 18.6 100 100 E 3 6 29.99 1016 10 16 0.00 0.00
2:58 am 02:58 Clear 66 18.8 66 18.8 100 100 E 2 4 29.99 1016 10 16 0.00 0.00
3:58 am 03:58 Clear 70 21.1 69 20.4 96 96 W 2 4 30.01 1016 10 16 0.00 0.00
4:58 am 04:58 Clear 69 20.6 69 20.6 100 100 SE 7 11 29.96 1014 10 16 0.00 0.00
5:58 am 05:58 Mostly Clear 69 20.6 69 20.3 98 98 ESE 12 19 29.89 1012 10 16 0.00 0.00
6:58 am 06:58 Sunny 69 20.8 68 20.1 96 96 SSE 7 11 29.92 1013 10 16 0.00 0.00
7:58 am 07:58 Mostly Sunny 73 22.5 69 20.4 88 88 ESE 7 11 29.94 1014 10 16 0.00 0.00
8:58 am 08:58 Sunny 76 24.2 70 21 82 82 WSW 5 7 29.99 1016 10 16 0.00 0.03
9:58 am 09:58 Sunny 78 25.6 70 21 76 76 W 8 13 30.01 1016 10 16 0.00 0.00
10:58 am 10:58 Mostly Sunny 81 27.1 70 21.1 70 70 VRB 7 11 29.98 1015 10 16 0.00 0.00
11:58 am 11:58 Sunny 84 28.7 70 21.1 64 64 S 13 20 29.97 1015 10 16 0.00 0.00
12:49 pm 12:49 Mostly Sunny 86 30 66 19 52 52 W 13 20 29.91 1013 10 16 0.00 0.00
12:58 pm 12:58 Mostly Sunny 85 29.6 67 19.3 54 54 WSW 13 20 29.97 1015 10 16 0.00 0.00
1:58 pm 13:58 Mostly Sunny 86 29.9 67 19.3 53 53 WNW 6 9 29.96 1015 10 16 0.00 0.00
2:58 pm 14:58 Partly Cloudy 83 28.4 71 21.8 67 67 NE 13 20 29.96 1015 10 16 0.00 0.00
3:58 pm 15:58 Sunny 85 29.5 70 21.2 61 61 E 8 13 29.95 1014 10 16 0.00 0.00
4:58 pm 16:58 Sunny 86 29.9 70 21 59 59 NNE 7 11 29.93 1014 10 16 0.00 0.00
5:58 pm 17:58 Sunny 86 30 70 21 59 59 VRB 3 6 29.91 1013 10 16 0.00 0.00
6:58 pm 18:58 Sunny 85 29.2 71 21.5 63 63 VRB 1 2 29.90 1012 10 16 0.00 0.00
7:58 pm 19:58 Mostly Cloudy 83 28.4 71 21.6 67 67 NE 7 11 29.91 1013 10 16 0.00 0.00
8:58 pm 20:58 Clear 79 26.2 70 21.1 74 74 N 7 11 29.94 1014 10 16 0.00 0.00
9:58 pm 21:58 Mostly Cloudy 77 25.1 69 20.7 77 77 N 1 2 29.96 1014 10 16 0.00 0.00
10:58 pm 22:58 Clear 72 22 69 20.8 93 93 Calm 29.97 1015 10 16 0.00 0.00
11:58 pm 23:58 Mostly Cloudy 71 21.8 70 21.1 96 96 S 1 2 29.96 1014 10 16 0.00 0.00

Powered by AerisWeather